Farmville, VA

12:53 PM EDT on March 27, 2017 (GMT -0400)
Farmville Regional

Weather History for KFVX - March, 2013

Change the Weather History Date:

Wednesday, March 20, 2013

  Actual Average Record
Temperature  
Mean Temperature 42 °F -  
Max Temperature 55 °F 61 °F 85 °F (1945)
Min Temperature 28 °F 34 °F 16 °F (1956)
Degree Days  
Heating Degree Days 24    
Moisture  
Dew Point 0 °F    
Average Humidity 16    
Maximum Humidity 59    
Minimum Humidity 7    
Precipitation  
Precipitation 0.00 in - - ()
Sea Level Pressure  
Sea Level Pressure 29.91 in    
Wind  
Wind Speed 5 mph (WSW)    
Max Wind Speed 18 mph    
Max Gust Speed 30 mph    
Visibility 10 miles    
Events      
Averages and records for this station are not official NWS values.
T = Trace of Precipitation, MM = Missing Value Source: NWS Daily Summary

Daily Weather History Graph

Daily Weather History Graph

Search for Another Location

Airport or City:

Trip Planner

Search our weather history database for the weather conditions in past years. The results will help you decide how hot, cold, wet, or windy it might be!

Date:

Astronomy

Mar. 20, 2013 Rise Set
Actual Time 7:16 AM EDT 7:25 PM EDT
Civil Twilight 6:50 AM EDT 7:51 PM EDT
Nautical Twilight 6:20 AM EDT 8:22 PM EDT
Astronomical Twilight 5:49 AM EDT 8:53 PM EDT
Moon 1:06 PM EDT (3/20) 2:48 AM EDT (3/20)
Length of Visible Light 13h 00m
Length of Day
12h 08m
First Quarter, 59% of the Moon is Illuminated
Mar 20
First Quarter
Mar 27
Full
Apr 3
Last Quarter
Apr 10
New
Apr 18
First Quarter

Hourly Weather History & Observations

Time (EDT) Temp. Windchill Dew Point Humidity Pressure Visibility Wind Dir Wind Speed Gust Speed Precip Events Conditions
12:15 AM 48.2 °F - -14.8 °F 7% 29.99 in 10.0 mi NW 4.6 mph - N/A   Clear
12:35 AM 48.2 °F - -14.8 °F 7% 29.99 in 10.0 mi West 4.6 mph - N/A   Clear
12:55 AM 46.4 °F 42.9 °F -14.8 °F 7% 30.00 in 10.0 mi WNW 6.9 mph - N/A   Clear
1:15 AM 46.4 °F 45.2 °F -14.8 °F 7% 30.00 in 10.0 mi WNW 3.5 mph - N/A   Clear
1:35 AM 46.4 °F - -13.0 °F 8% 30.00 in 10.0 mi Calm Calm - N/A   Clear
1:55 AM 44.6 °F - -9.4 °F 10% 30.00 in 10.0 mi Calm Calm - N/A   Clear
2:15 AM 42.8 °F - -9.4 °F 11% 29.99 in 10.0 mi Calm Calm - N/A   Clear
2:35 AM 42.8 °F - -5.8 °F 13% 29.99 in 10.0 mi Calm Calm - N/A   Clear
2:55 AM 44.6 °F 40.7 °F -7.6 °F 11% 29.98 in 10.0 mi WNW 6.9 mph - N/A   Clear
3:15 AM 44.6 °F 43.1 °F -7.6 °F 11% 29.99 in 10.0 mi WNW 3.5 mph - N/A   Clear
3:35 AM 44.6 °F 43.1 °F -7.6 °F 11% 29.98 in 10.0 mi WNW 3.5 mph - N/A   Clear
3:55 AM 42.8 °F 40.1 °F -5.8 °F 13% 29.98 in 10.0 mi WNW 4.6 mph - N/A   Clear
4:15 AM 42.8 °F 40.1 °F -5.8 °F 13% 29.98 in 10.0 mi WNW 4.6 mph - N/A   Clear
4:35 AM 42.8 °F 41.1 °F -4.0 °F 14% 29.98 in 10.0 mi WNW 3.5 mph - N/A   Clear
4:55 AM 39.2 °F - -2.2 °F 17% 29.98 in 10.0 mi Calm Calm - N/A   Clear
5:15 AM 39.2 °F - -0.4 °F 19% 29.99 in 10.0 mi Calm Calm - N/A   Clear
5:35 AM 39.2 °F - 1.4 °F 21% 30.00 in 10.0 mi Calm Calm - N/A   Clear
5:55 AM 35.6 °F - 3.2 °F 26% 30.00 in - Calm Calm - N/A   Unknown
6:15 AM - - - N/A% - - North - - N/A   Unknown
6:35 AM 35.6 °F - 1.4 °F 24% 30.01 in - Calm Calm - N/A   Unknown
6:55 AM 28.4 °F - 15.8 °F 59% 30.01 in 10.0 mi Calm Calm - N/A   Unknown
7:15 AM 33.8 °F - 6.8 °F 32% 30.02 in 10.0 mi Calm Calm - N/A   Clear
7:35 AM 33.8 °F - 10.4 °F 38% 30.02 in 10.0 mi Calm Calm - N/A   Clear
7:55 AM 32.0 °F - 15.8 °F 51% 30.02 in 10.0 mi Calm Calm - N/A   Clear
8:15 AM 33.8 °F - 15.8 °F 48% 30.03 in 10.0 mi Calm Calm - N/A   Clear
8:35 AM 41.0 °F 39.0 °F 6.8 °F 24% 30.03 in 10.0 mi WSW 3.5 mph - N/A   Clear
8:55 AM 42.8 °F 39.3 °F 1.4 °F 18% 30.03 in 10.0 mi WSW 5.8 mph - N/A   Clear
9:15 AM 44.6 °F 43.1 °F 3.2 °F 18% 30.03 in 10.0 mi WSW 3.5 mph - N/A   Clear
9:35 AM 44.6 °F 40.7 °F 1.4 °F 17% 30.04 in 10.0 mi SW 6.9 mph - N/A   Clear
9:55 AM 44.6 °F 42.2 °F 1.4 °F 17% 30.04 in 10.0 mi WSW 4.6 mph - N/A   Clear
10:15 AM 46.4 °F 44.3 °F 3.2 °F 17% 30.04 in 10.0 mi NW 4.6 mph - N/A   Clear
10:55 AM 48.2 °F - 1.4 °F 15% 30.03 in 10.0 mi SW 9.2 mph - N/A   Clear
11:15 AM 48.2 °F - 1.4 °F 15% 30.03 in 10.0 mi West 5.8 mph - N/A   Clear
11:55 AM 50.0 °F - 3.2 °F 15% 30.02 in 10.0 mi SW 4.6 mph - N/A   Clear
12:15 PM 50.0 °F - 1.4 °F 14% 30.00 in 10.0 mi WSW 11.5 mph 17.3 mph N/A   Clear
12:35 PM 51.8 °F - 1.4 °F 13% 29.99 in 10.0 mi WSW 11.5 mph 17.3 mph N/A   Clear
12:55 PM 51.8 °F - -2.2 °F 11% 29.99 in 10.0 mi WSW 8.1 mph - N/A   Clear
1:15 PM 51.8 °F - -2.2 °F 11% 29.97 in 10.0 mi West 5.8 mph 18.4 mph N/A   Clear
1:35 PM 53.6 °F - 1.4 °F 12% 29.96 in 10.0 mi WSW 8.1 mph 16.1 mph N/A   Clear
1:55 PM 53.6 °F - 3.2 °F 13% 29.93 in 10.0 mi SW 12.7 mph 24.2 mph N/A   Clear
2:15 PM 53.6 °F - -2.2 °F 10% 29.92 in 10.0 mi WSW 16.1 mph 26.5 mph N/A   Clear
2:35 PM 55.4 °F - 1.4 °F 11% 29.90 in 10.0 mi SW 12.7 mph 23.0 mph N/A   Clear
2:55 PM 55.4 °F - 1.4 °F 11% 29.88 in 10.0 mi SW 12.7 mph 16.1 mph N/A   Clear
3:15 PM 55.4 °F - 1.4 °F 11% 29.87 in 10.0 mi SW 15.0 mph 21.9 mph N/A   Scattered Clouds
3:35 PM 55.4 °F - -2.2 °F 9% 29.86 in 10.0 mi SW 12.7 mph 21.9 mph N/A   Scattered Clouds
3:55 PM 55.4 °F - 1.4 °F 11% 29.84 in 10.0 mi SSW 11.5 mph 21.9 mph N/A   Clear
4:15 PM 55.4 °F - -2.2 °F 9% 29.84 in 10.0 mi WSW 9.2 mph - N/A   Scattered Clouds
4:35 PM 55.4 °F - -7.6 °F 7% 29.83 in 10.0 mi WSW 15.0 mph 23.0 mph N/A   Scattered Clouds
4:55 PM 55.4 °F - -4.0 °F 9% 29.82 in 10.0 mi SW 11.5 mph 18.4 mph N/A   Scattered Clouds
5:15 PM 55.4 °F - -5.8 °F 8% 29.81 in 10.0 mi WSW 9.2 mph - N/A   Clear
5:35 PM 55.4 °F - -7.6 °F 7% 29.80 in 10.0 mi West 4.6 mph - N/A   Scattered Clouds
5:55 PM 55.4 °F - -7.6 °F 7% 29.79 in 10.0 mi SW 12.7 mph 18.4 mph N/A   Clear
6:15 PM 55.4 °F - -9.4 °F 7% 29.78 in 10.0 mi WSW 9.2 mph - N/A   Clear
6:35 PM 55.4 °F - -7.6 °F 7% 29.78 in 10.0 mi WSW 6.9 mph - N/A   Clear
6:55 PM 53.6 °F - -5.8 °F 9% 29.79 in 10.0 mi WSW 6.9 mph - N/A   Clear
7:15 PM 53.6 °F - -4.0 °F 9% 29.79 in 10.0 mi Calm Calm - N/A   Scattered Clouds
7:35 PM 51.8 °F - -0.4 °F 12% 29.79 in 10.0 mi SSW 3.5 mph - N/A   Scattered Clouds
7:55 PM 51.8 °F - 1.4 °F 13% 29.78 in 10.0 mi Calm Calm - N/A   Scattered Clouds
8:15 PM 48.2 °F - 6.8 °F 19% 29.78 in 10.0 mi Calm Calm - N/A   Overcast
8:35 PM 50.0 °F - 1.4 °F 14% 29.78 in 10.0 mi SSW 3.5 mph - N/A   Mostly Cloudy
8:55 PM 50.0 °F - 3.2 °F 15% 29.78 in 10.0 mi SW 3.5 mph - N/A   Scattered Clouds
9:15 PM 50.0 °F - 6.8 °F 17% 29.77 in 10.0 mi SSW 6.9 mph - N/A   Scattered Clouds
9:35 PM 50.0 °F - 5.0 °F 16% 29.77 in 10.0 mi SW 4.6 mph - N/A   Mostly Cloudy
9:55 PM 50.0 °F - 6.8 °F 17% 29.76 in 10.0 mi SW 4.6 mph - N/A   Overcast
10:15 PM 50.0 °F - 6.8 °F 17% 29.76 in 10.0 mi SW 4.6 mph - N/A   Mostly Cloudy
10:35 PM 48.2 °F - 8.6 °F 20% 29.77 in 10.0 mi SSW 10.4 mph - N/A   Overcast
10:55 PM 50.0 °F - 10.4 °F 20% 29.76 in 10.0 mi SSW 18.4 mph 29.9 mph N/A   Overcast
11:15 PM 50.0 °F - 10.4 °F 20% 29.76 in 10.0 mi SSW 8.1 mph - N/A   Scattered Clouds
11:35 PM 46.4 °F 44.3 °F 14.0 °F 27% 29.75 in 10.0 mi South 4.6 mph - N/A   Clear
11:55 PM 48.2 °F - 10.4 °F 22% 29.74 in 10.0 mi South 3.5 mph - N/A   Mostly Cloudy